Location: Home
(42.5358°N, 72.7383°W)
Time: 12:23:31
(UTC-05:00)

A-11 Canister half - Pass Details

Date: 02 December 2021
Orbit: 1516 x 1684 km, 47.2° (Epoch: 26 January)

Event Time Altitude Azimuth Distance (km) Brightness Sun altitude
Rises 11:00:45 0° 284° (WNW) 4,856 11.4 24.8°
Reaches altitude 10° 11:03:53 10° 287° (WNW) 3,888 10.9 24.9°
Maximum altitude 11:13:55 72° 12° (NNE) 1,745 9.5 25.1°
Drops below altitude 10° 11:24:06 10° 96° (E) 3,946 11.4 25.3°
Sets 11:27:18 0° 99° (E) 4,931 11.8 25.3°
